Flag for Belarus Weather past 2 weeks in Gomel, Belarus

Now
36 °F

Sprinkles. Mostly cloudy.


Feels Like: 26 °F
Forecast: 41 / 44 °F
Wind: 15 mph from Southwest

Location: Gomel'

Current Time: Dec 22, 2014 at 3:26:50 PM

Latest Report: Dec 22, 2014 at 3:00 PM


Visibility: 4 mi

Pressure: 29.62 "Hg

Humidity: 100%

Dew point: 36 °F

Location of GomelLocation

Historic Weather in Gomel — Graph

°F

Gomel temperature yesterday

Maximum temperature yesterday: 37 °F (at 2:00 PM)
Minimum temperature yesterday: 34 °F (at 12:00 AM)
Average temperature yesterday: 35 °F

Past Weeks' High & Low Weather Summary

 TemperatureHumidityPressure
High46 °F (Dec 20, 3:00 AM)100% (Dec 7, 3:00 PM)30.36 "Hg (Dec 7, 3:00 PM)
Low19 °F (Dec 7, 2:00 PM)75% (Dec 13, 8:00 AM)29.56 "Hg (Dec 20, 4:00 AM)
Average33 °F93%29.94 "Hg
* Reported Dec 7 2:00 PM — Dec 22 2:30 PM, Gomel, Weather by CustomWeather, © 2014

Note: Actual official high and low records may vary slightly from our data, if they occured in-between our weather recording intervals... More about our weather records

Advertising

Gomel weather history for previous 24 hours

 ConditionsComfort  
Time TempWeatherWind HumidityBarometerVisibility
2:30 PM
Dec 22
36 °FSprinkles. Fog.13 mph100%29.62 "Hg3 mi
2:00 PM36 °FSprinkles. Fog.15 mph100%29.62 "Hg3 mi
1:30 PM36 °FSnow flurries. Fog.10 mph93%29.65 "Hg3 mi
1:00 PM36 °FSprinkles. Fog.10 mph93%29.65 "Hg3 mi
12:30 PM32 °FSnow flurries. Ice fog.13 mph100%29.71 "Hg2 mi
12:00 PM32 °FSnow flurries. Ice fog.13 mph100%29.68 "Hg2 mi
11:30 AM32 °FSnow flurries. Ice fog.8 mph100%29.71 "Hg1 mi
11:00 AM32 °FSnow flurries. Ice fog.10 mph100%29.71 "Hg2 mi
10:30 AM32 °FSnow showers. Ice fog.8 mph93%29.74 "Hg1 mi
10:00 AM32 °FSnow showers. Ice fog.10 mph93%29.74 "Hg1 mi
9:45 AM32 °FSnow showers. Ice fog.8 mph93%29.74 "Hg1 mi
9:30 AM32 °FSnow flurries. Ice fog.8 mph93%29.74 "Hg2 mi
9:00 AM32 °FLight snow. Mostly cloudy.8 mph93%29.74 "Hg4 mi
8:30 AM30 °FPassing clouds.8 mph93%29.74 "HgN/A
8:00 AM30 °FPartly cloudy.10 mph93%29.77 "HgN/A
7:30 AM30 °FPartly cloudy.10 mph86%29.77 "HgN/A
6:30 AM32 °FPassing clouds.8 mph87%29.77 "HgN/A
6:00 AM32 °FClear.10 mph87%29.77 "Hg10 mi
5:00 AM32 °FPassing clouds.10 mph87%29.77 "HgN/A
4:00 AM32 °FPassing clouds.10 mph87%29.77 "HgN/A
3:00 AM34 °FPassing clouds.13 mph87%29.77 "HgN/A
2:00 AM34 °FPassing clouds.13 mph87%29.77 "HgN/A
1:00 AM34 °FPassing clouds.13 mph87%29.77 "HgN/A
12:00 AM34 °FClear.13 mph87%29.77 "Hg10 mi
11:00 PM
Dec 21
34 °FClear.10 mph87%29.77 "Hg10 mi
10:00 PM34 °FOvercast.10 mph87%29.77 "HgN/A
9:00 PM36 °FOvercast.10 mph87%29.77 "HgN/A
8:00 PM34 °FOvercast.10 mph93%29.77 "HgN/A
7:30 PM36 °FSnow flurries. Overcast.13 mph93%29.74 "Hg4 mi
7:00 PM36 °FOvercast.10 mph93%29.74 "HgN/A
6:30 PM36 °FMostly cloudy.13 mph93%29.74 "HgN/A
6:00 PM36 °FMostly cloudy.10 mph93%29.74 "HgN/A
5:30 PM34 °FOvercast.13 mph100%29.71 "HgN/A
5:00 PM36 °FOvercast.10 mph93%29.71 "HgN/A
4:30 PM37 °FOvercast.10 mph87%29.71 "HgN/A
4:00 PM37 °FOvercast.10 mph87%29.71 "HgN/A
3:30 PM37 °FOvercast.10 mph87%29.68 "HgN/A
3:00 PM37 °FOvercast.10 mph87%29.68 "HgN/A
Weather by CustomWeather, © 2014

See weather overviewHow to use our weather pages